カタログに戻る

THOR ABLESTAR DEB

運用中VLEO
NORAD 660·DEBRIS·🇺🇸 United States

打ち上げ Jun 29, 1961 から Cape Canaveral Space Force Station

Loading…

次のパス (今後24時間)

TLE

最新Source: Space-Track

元期: Sep 14, 2026, 09:53 UTC

1 00660U 61015HM  26257.41234694  .00036129  00000-0  13805-2 0  9990
2 00660  66.4829 254.6096 0006700 192.7590 167.3387 15.26429881399021

AllMySatでTHOR ABLESTAR DEBをリアルタイム追跡

Download on the App Store